Temperature
17 16 16 16 17 17 17 17 17 17 17 17 17 17 17 17 17 16 16 16 16 16 16 16 16 16 16 16 16 16 16 15 15 15 15 15 15 15 15 15 15 15 15
17 16 16 16 17 17 17 17 17 17 17 17 17 17 17 16 16 16 16 16 16 16 16 16 16 16 16 16 16 16 16 15 15 15 15 15 15 15 15 15 15 14 15
17 16 16 16 16 17 17 17 17 17 17 17 16 16 16 16 16 16 16 16 16 16 16 16 16 16 16 16 16 16 15 15 15 15 15 15 15 14 14 14 14 14 14
16 16 16 16 16 16 16 16 16 16 16 16 16 16 16 16 16 16 16 16 16 16 16 16 16 16 16 16 15 15 15 15 15 15 15 15 15 14 14 14 14 14 14
16 16 16 16 16 16 16 16 16 16 16 16 16 16 16 16 16 15 15 15 16 16 16 15 15 15 15 15 15 15 15 15 15 15 15 14 14 14 14 14 14 14 14
16 16 16 16 16 16 16 16 16 16 16 16 16 16 16 16 15 15 15 15 15 15 15 15 15 15 15 15 15 15 15 15 15 15 14 14 14 14 14 14 14 14 13
16 15 16 15 16 16 16 16 16 16 16 16 16 16 15 15 15 15 15 15 15 15 15 15 15 15 15 15 15 15 15 14 14 14 14 14 14 14 13 13 13 13 13
15 15 15 15 15 15 15 15 15 15 15 15 15 15 15 15 15 15 15 15 15 15 15 15 15 15 15 15 14 14 14 14 14 14 14 14 13 13 13 13 13 13 13
15 15 15 15 15 15 15 15 15 15 15 15 15 15 15 15 15 15 15 15 15 15 15 15 15 14 14 14 14 14 14 14 14 14 14 13 13 13 13 13 13 13 13
15 15 15 15 15 15 15 15 15 15 15 15 15 15 15 15 15 15 15 15 15 14 14 14 14 14 14 14 14 13 13 13 13 13 13 13 13 13 12 12 12 12 12
14 14 15 15 15 15 15 15 15 15 15 15 15 15 15 15 15 15 15 14 14 14 14 14 14 14 13 13 13 13 13 13 13 13 13 13 12 12 12 12 12 12 12
14 14 14 14 15 15 15 15 15 15 15 15 15 15 15 15 14 14 14 14 14 14 14 14 13 13 13 13 13 13 13 13 13 13 12 12 12 12 12 12 11 11 11
14 14 14 14 14 14 14 14 14 14 14 14 14 14 14 14 14 14 14 14 14 13 13 13 13 13 13 13 13 13 12 12 12 12 12 12 12 11 11 11 11 11 11
14 14 14 14 14 14 14 14 14 14 14 14 14 14 14 14 14 13 13 13 13 13 13 13 13 13 12 12 12 12 12 12 12 12 12 11 11 11 11 11 10 10 10
14 14 14 14 14 14 14 14 14 14 14 14 14 13 13 13 13 13 13 13 13 13 13 12 12 12 12 12 12 12 12 12 11 11 11 11 11 10 10 10 10 10 10
14 14 14 14 14 13 13 13 13 13 13 13 13 13 13 13 13 13 13 13 13 12 12 12 12 12 12 12 12 12 11 11 11 11 10 10 10 10 10 10 9 9 9
14 14 13 13 13 13 13 13 13 13 13 13 13 13 13 12 12 12 12 12 12 12 12 12 12 11 11 11 11 11 11 11 10 10 10 10 9 9 9 9 9 9 8
14 13 13 13 13 13 13 13 13 13 12 12 12 12 12 12 12 12 12 12 12 12 11 11 11 11 11 11 11 11 10 10 10 10 9 9 9 9 9 8 8 8 8
14 13 13 13 13 13 13 12 12 12 12 12 12 12 12 12 12 12 11 11 11 11 11 11 11 11 11 10 10 10 10 10 9 9 9 8 8 8 8 8 8 8 7
13 13 13 13 12 12 12 12 12 12 11 11 11 11 11 11 11 11 11 11 11 11 11 10 10 10 10 10 10 10 9 9 9 9 8 8 8 8 7 7 7 7 7
13 13 13 12 12 12 12 12 12 12 11 11 11 11 11 11 11 10 10 10 10 10 10 10 10 10 10 9 9 9 9 9 8 8 8 7 7 7 7 7 7 6 6
13 13 12 12 12 12 12 12 12 11 11 11 11 10 10 10 10 10 10 10 10 10 10 9 9 9 9 8 8 7 7 7 7 7 7 7 7 7 6 6 6 6 6
12 12 12 12 12 12 12 11 11 11 11 10 10 10 10 10 10 10 10 9 9 9 9 9 8 8 8 7 7 6 6 6 6 6 6 6 6 6 6 6 6 5 5
12 12 12 12 12 12 11 11 11 11 11 11 10 10 10 9 9 9 9 9 9 9 8 8 8 7 7 7 6 6 5 5 4 5 6 6 6 6 5 5 5 5 5
12 12 12 12 11 11 11 11 11 11 11 10 10 10 9 9 9 9 9 8 8 8 8 7 7 7 6 6 6 5 5 5 4 4 4 5 5 5 5 5 5 4 4
12 12 11 11 11 11 11 11 11 10 10 10 10 9 9 9 9 8 8 8 8 7 7 7 6 6 6 6 5 5 5 4 4 3 3 3 4 5 5 4 4 4 4
Wind_Speed
4 5 11 13 13 13 13 14 14 14 14 14 14 14 15 14 14 13 13 13 13 12 12 13 13 13 14 14 13 13 13 12 11 11 11 11 10 10 10 8 7 6 7
7 8 13 14 14 14 14 14 14 14 14 14 14 14 14 14 14 13 13 12 12 12 12 12 13 13 14 13 13 13 12 12 12 12 11 10 9 9 9 9 8 7 6
8 9 13 15 14 15 15 14 14 14 14 14 14 14 14 14 13 13 12 12 12 12 12 12 12 13 13 13 13 13 12 12 12 12 11 9 8 8 8 8 8 8 7
9 10 12 15 15 15 15 15 15 14 14 14 14 13 13 13 13 13 13 12 12 12 12 12 12 12 12 12 12 13 13 13 13 12 10 9 8 8 8 8 8 8 8
9 10 13 16 16 15 15 15 15 14 14 14 14 13 13 13 13 13 12 12 12 12 12 11 11 11 11 11 12 12 13 13 13 12 11 10 9 9 9 8 8 8 8
8 10 13 16 16 15 15 15 15 14 14 14 14 13 13 13 12 12 12 12 12 12 12 11 11 11 11 11 11 11 12 12 11 11 10 9 9 9 9 9 9 8 8
8 10 13 15 16 15 15 14 14 14 14 14 13 13 13 13 13 12 12 12 12 11 11 11 11 11 11 11 11 11 11 11 11 10 9 9 8 9 9 9 9 9 9
9 9 12 15 15 15 15 14 14 14 13 13 13 13 13 13 13 13 12 12 12 11 11 11 11 11 12 11 11 11 11 10 10 9 8 8 8 8 9 9 9 9 8
9 9 9 12 13 15 15 14 14 14 13 13 13 13 13 12 12 12 12 12 12 11 11 11 11 11 11 11 11 11 11 11 10 8 8 8 8 8 9 9 9 9 9
7 7 8 10 12 12 13 14 14 14 13 13 13 13 13 12 12 12 12 12 12 11 11 11 11 11 11 11 11 11 11 10 10 9 8 8 8 8 9 9 9 9 9
6 6 7 8 10 11 11 12 13 13 13 13 12 13 12 12 12 11 12 11 11 11 11 10 10 10 10 10 10 10 10 9 9 8 7 8 9 9 9 9 9 9 9
8 6 6 7 8 10 10 11 11 11 12 12 11 12 11 11 10 10 11 11 11 11 11 11 10 9 9 9 9 9 8 9 8 8 8 9 9 9 10 10 10 10 10
9 7 6 6 8 9 8 9 9 9 10 10 11 11 11 10 10 9 9 9 10 10 10 9 10 9 8 7 7 7 7 7 7 7 8 9 9 10 10 10 10 11 11
9 8 6 6 7 8 8 7 7 7 7 7 8 9 9 7 7 7 7 7 8 8 8 8 7 7 7 7 6 6 6 6 6 6 7 9 10 10 11 11 12 12 12
9 8 7 7 7 7 7 6 6 6 6 7 8 8 9 7 5 5 5 7 7 7 7 6 6 6 6 6 6 5 5 5 6 6 7 9 10 10 11 12 13 13 13
9 9 7 7 7 8 6 5 5 6 7 7 7 7 8 8 6 5 4 5 6 6 6 5 5 4 4 4 4 5 4 4 5 5 6 8 9 10 11 12 13 14 14
9 9 8 8 7 7 7 6 6 6 7 6 6 7 7 8 7 6 4 4 4 6 6 5 5 4 3 4 4 4 4 4 4 5 6 7 8 9 10 12 14 14 14
9 9 8 8 8 7 6 6 6 7 7 6 6 7 7 7 7 7 4 3 5 6 5 3 3 3 3 3 3 3 3 3 4 5 5 6 7 8 9 12 13 14 15
10 10 9 8 8 7 7 6 6 6 6 6 6 6 6 7 7 7 4 4 5 5 4 3 3 2 3 4 4 3 3 3 3 4 4 5 6 7 8 11 13 13 15
8 9 9 8 8 7 6 6 4 5 4 5 5 5 6 6 7 7 5 5 5 4 3 3 3 3 2 3 4 4 4 4 3 2 3 4 6 8 9 10 11 12 15
8 8 8 9 8 7 5 4 4 3 2 2 3 5 6 6 6 6 4 4 4 3 2 2 2 3 4 3 3 4 4 3 3 2 2 3 4 7 8 9 10 11 11
9 9 9 9 9 8 6 4 3 3 2 2 3 4 5 5 5 5 4 3 3 2 3 3 2 2 2 4 2 3 4 4 3 3 3 3 4 6 6 9 10 10 11
9 11 10 10 9 8 7 5 5 4 3 2 2 1 3 4 4 5 4 3 2 2 1 2 2 2 1 3 2 1 1 3 6 3 3 3 5 5 5 7 9 10 11
10 9 9 9 9 8 9 8 8 5 4 3 2 1 2 3 4 4 4 3 2 2 1 1 1 1 0 1 2 1 1 2 2 5 4 4 5 6 6 7 8 10 11
8 9 8 9 8 8 8 9 9 5 3 3 2 3 2 2 3 3 3 3 2 1 1 1 1 1 0 1 1 1 1 2 3 3 7 8 7 5 5 6 7 8 10
6 7 8 9 8 8 8 8 8 8 6 5 3 2 1 1 1 2 2 2 1 1 1 1 0 1 1 1 1 2 2 2 3 3 6 9 10 8 7 6 5 6 9
Wind_Direction
167 163 145 136 129 122 118 115 111 109 107 105 104 104 101 99 98 95 92 89 87 84 82 81 78 76 74 72 69 66 65 66 65 62 60 59 60 62 60 59 57 53 54
147 147 141 136 130 123 119 116 112 109 106 105 103 103 102 100 99 96 91 88 86 84 81 81 79 76 73 71 68 66 65 64 62 60 57 53 51 54 55 55 56 52 47
133 138 138 135 131 125 119 115 114 111 107 105 103 103 102 100 97 95 92 88 85 83 81 79 78 75 73 69 67 66 64 62 60 57 52 45 42 45 48 50 50 46 42
130 131 134 134 130 126 122 118 114 111 109 107 104 102 100 97 95 92 90 87 84 82 80 78 77 75 73 69 67 65 63 61 58 55 50 43 39 41 44 44 43 40 36
119 123 131 131 129 126 123 119 115 112 108 106 103 100 98 95 93 91 88 86 84 82 80 78 76 75 72 71 69 66 63 61 58 53 48 39 34 37 40 39 36 33 30
111 116 128 129 129 126 124 120 118 115 111 106 101 98 95 93 90 88 86 85 83 82 79 77 75 73 71 71 69 66 63 62 59 52 45 36 28 31 37 36 34 31 28
115 114 127 129 128 126 124 121 118 115 112 107 103 100 96 91 89 87 84 83 81 80 78 75 74 71 70 68 66 63 61 61 58 49 39 31 28 31 32 31 27 24 23
118 113 125 129 127 125 122 120 117 115 112 108 104 100 97 93 89 85 83 81 80 79 77 75 72 68 66 65 63 60 56 56 55 45 33 24 22 25 25 24 21 17 14
108 107 109 118 122 123 121 119 115 113 110 106 102 99 96 92 89 85 81 79 78 77 75 74 72 67 64 62 62 60 57 53 51 41 31 22 20 19 19 17 15 11 6
104 104 103 105 109 110 114 117 115 112 108 104 99 94 91 87 84 81 79 78 75 74 72 71 70 66 62 60 57 55 54 49 43 36 28 21 15 12 12 12 7 2 358
118 111 107 105 104 104 105 109 109 107 105 101 95 92 87 81 77 75 77 75 73 71 69 67 66 61 59 54 50 49 48 42 37 30 24 19 14 11 8 4 359 354 350
149 137 121 114 109 105 104 100 98 97 96 96 96 93 88 83 78 75 72 69 67 65 63 60 57 54 52 46 41 40 40 36 33 24 18 14 10 5 2 360 357 354 348
156 147 135 123 115 110 106 102 97 97 95 95 97 97 93 83 77 71 66 61 59 56 56 52 50 47 47 43 37 35 33 33 27 19 14 12 7 2 358 355 351 348 345
156 154 143 129 120 114 111 108 106 103 101 98 99 102 97 86 74 68 65 60 57 56 53 49 47 42 39 35 33 33 28 25 21 16 13 11 4 358 355 351 347 344 340
161 158 151 138 130 123 114 113 110 110 110 108 103 101 102 96 84 75 67 62 57 55 53 46 42 36 30 24 24 27 21 17 16 15 7 4 0 356 352 349 345 341 338
168 162 153 146 138 130 123 120 119 118 116 109 105 105 104 102 96 84 69 59 52 51 53 51 42 34 22 21 14 16 14 12 12 6 1 359 357 355 351 349 345 341 337
169 160 157 153 140 134 128 126 122 121 118 110 108 107 104 103 99 92 75 56 47 50 51 46 37 34 18 12 1 358 4 3 2 355 354 358 356 352 349 347 342 338 335
163 162 162 157 146 141 131 124 120 118 114 111 111 107 102 100 99 92 76 57 49 51 49 40 24 18 8 0 346 337 343 349 348 348 353 355 354 350 347 344 339 336 334
167 164 161 153 151 144 129 119 114 110 107 110 111 106 102 98 95 91 78 61 56 53 43 29 25 19 1 349 337 333 329 321 324 339 349 350 348 345 344 341 339 335 332
162 158 157 151 147 136 123 110 100 93 90 98 103 105 102 96 92 89 79 62 58 53 35 27 24 17 2 335 330 329 317 305 311 316 320 339 342 338 336 336 336 331 328
157 155 159 156 154 146 140 139 132 133 121 101 93 100 103 98 95 91 78 62 57 59 39 25 25 16 8 349 356 336 318 303 303 299 312 319 325 326 329 332 330 326 323
170 167 165 164 162 163 160 149 139 133 123 112 91 87 99 100 98 94 85 73 61 61 40 28 30 29 12 13 18 357 340 332 324 299 295 297 303 320 320 322 321 316 315
178 177 175 171 165 162 147 127 108 88 76 77 85 84 75 98 96 95 92 83 65 71 57 21 34 56 15 5 26 68 8 306 314 300 289 291 298 297 302 310 307 308 310
187 178 171 167 160 157 150 150 148 151 157 172 161 140 79 91 94 93 91 84 70 62 62 11 27 19 101 334 349 355 222 240 296 310 306 293 295 294 292 303 301 303 307
178 171 167 157 154 153 156 158 154 147 147 131 119 115 98 69 83 85 90 79 63 53 46 17 6 353 264 244 274 287 304 292 249 264 298 307 307 290 289 290 291 299 306
160 158 156 154 154 153 153 155 157 153 142 134 133 137 127 89 63 64 78 71 61 41 7 333 331 323 296 271 271 260 259 269 272 268 285 302 306 302 299 287 286 294 303
Height
1508 1510 1513 1515 1517 1519 1520 1522 1523 1524 1525 1526 1527 1528 1529 1530 1531 1531 1532 1533 1533 1534 1534 1534 1535 1535 1535 1535 1535 1535 1536 1536 1536 1536 1536 1536 1536 1535 1535 1535 1535 1535 1535
1507 1510 1513 1515 1518 1519 1521 1523 1524 1525 1526 1527 1528 1529 1530 1530 1531 1532 1533 1533 1534 1534 1535 1535 1535 1535 1536 1536 1536 1536 1536 1536 1536 1536 1536 1536 1536 1536 1535 1535 1535 1535 1535
1507 1510 1513 1515 1518 1520 1521 1523 1524 1526 1527 1528 1529 1530 1530 1531 1532 1533 1533 1534 1534 1535 1535 1535 1536 1536 1536 1536 1536 1536 1536 1536 1536 1536 1536 1536 1536 1535 1535 1535 1535 1535 1535
1507 1510 1513 1516 1518 1520 1522 1523 1525 1526 1527 1528 1529 1530 1531 1532 1533 1533 1534 1534 1535 1535 1535 1536 1536 1536 1536 1536 1536 1536 1536 1536 1536 1536 1536 1535 1535 1535 1535 1534 1534 1534 1534
1508 1511 1513 1516 1518 1520 1522 1524 1525 1527 1528 1529 1530 1531 1532 1533 1533 1534 1534 1535 1535 1535 1536 1536 1536 1536 1536 1537 1536 1536 1536 1536 1536 1536 1535 1535 1535 1535 1534 1534 1533 1533 1533
1508 1511 1514 1516 1519 1521 1522 1524 1526 1527 1528 1529 1530 1531 1532 1533 1534 1534 1535 1535 1536 1536 1536 1536 1536 1537 1537 1537 1536 1536 1536 1536 1536 1535 1535 1535 1534 1534 1533 1533 1533 1532 1532
1508 1511 1514 1517 1519 1521 1523 1525 1526 1527 1529 1530 1531 1532 1533 1533 1534 1535 1535 1535 1536 1536 1536 1536 1537 1537 1537 1537 1536 1536 1536 1536 1535 1535 1534 1534 1534 1533 1533 1532 1532 1531 1530
1509 1512 1514 1517 1519 1521 1523 1525 1526 1528 1529 1530 1531 1532 1533 1534 1534 1535 1535 1536 1536 1536 1536 1537 1537 1537 1537 1536 1536 1536 1535 1535 1534 1534 1533 1533 1533 1532 1531 1531 1530 1530 1529
1510 1512 1514 1517 1519 1521 1523 1525 1526 1528 1529 1530 1531 1532 1533 1534 1534 1535 1535 1536 1536 1536 1536 1536 1536 1536 1536 1536 1536 1535 1535 1534 1534 1533 1533 1532 1531 1531 1530 1529 1529 1528 1527
1510 1512 1514 1517 1519 1521 1523 1525 1526 1528 1529 1530 1531 1532 1533 1534 1534 1535 1535 1535 1536 1536 1536 1536 1536 1536 1536 1535 1535 1535 1534 1534 1533 1532 1532 1531 1530 1529 1529 1528 1527 1526 1525
1509 1512 1514 1516 1519 1521 1523 1524 1526 1528 1529 1530 1531 1532 1533 1533 1534 1534 1535 1535 1535 1535 1536 1536 1535 1535 1535 1535 1535 1534 1534 1533 1532 1531 1531 1530 1529 1528 1527 1526 1525 1524 1523
1507 1511 1514 1516 1518 1520 1522 1524 1526 1527 1529 1530 1531 1532 1533 1533 1534 1534 1534 1535 1535 1535 1535 1535 1535 1535 1534 1534 1534 1533 1533 1532 1531 1530 1529 1529 1528 1526 1525 1524 1523 1522 1520
1507 1510 1513 1515 1518 1520 1522 1524 1526 1527 1528 1530 1531 1532 1532 1533 1533 1534 1534 1534 1534 1535 1534 1534 1534 1534 1534 1533 1533 1532 1532 1531 1530 1529 1528 1527 1526 1524 1523 1522 1521 1519 1518
1506 1509 1512 1515 1517 1519 1522 1523 1525 1527 1528 1529 1530 1531 1532 1532 1533 1533 1534 1534 1534 1534 1534 1534 1533 1533 1533 1532 1532 1531 1530 1529 1528 1527 1526 1525 1524 1522 1521 1519 1518 1517 1515
1505 1508 1511 1514 1516 1519 1521 1523 1525 1526 1528 1529 1530 1531 1531 1532 1532 1533 1533 1533 1533 1533 1533 1533 1532 1532 1532 1531 1530 1530 1529 1528 1527 1525 1524 1523 1521 1519 1518 1517 1515 1513 1512
1504 1507 1510 1513 1516 1518 1520 1522 1524 1526 1527 1528 1529 1530 1531 1531 1532 1532 1532 1532 1532 1532 1532 1531 1531 1531 1530 1529 1529 1528 1527 1526 1524 1523 1522 1520 1519 1517 1515 1514 1512 1510 1508
1503 1506 1509 1512 1515 1517 1519 1522 1523 1525 1526 1527 1529 1529 1530 1531 1531 1531 1531 1531 1531 1531 1531 1530 1530 1529 1528 1527 1526 1525 1524 1523 1522 1521 1519 1518 1516 1514 1512 1510 1508 1507 1505
1501 1505 1508 1511 1513 1516 1518 1521 1522 1524 1525 1527 1528 1529 1529 1530 1530 1530 1530 1530 1530 1530 1529 1529 1528 1527 1526 1525 1524 1523 1522 1520 1519 1518 1516 1514 1513 1511 1509 1507 1505 1503 1501
1499 1503 1506 1509 1512 1514 1517 1519 1521 1523 1524 1526 1527 1528 1528 1529 1529 1529 1529 1529 1529 1528 1528 1527 1526 1525 1524 1522 1521 1520 1518 1517 1516 1515 1513 1512 1510 1508 1506 1503 1501 1499 1497
1497 1500 1504 1507 1510 1513 1515 1518 1520 1521 1523 1524 1526 1526 1527 1527 1528 1528 1528 1528 1527 1527 1526 1525 1524 1523 1522 1520 1518 1516 1515 1514 1512 1511 1510 1509 1507 1505 1502 1500 1498 1495 1493
1494 1497 1501 1504 1507 1510 1513 1515 1517 1519 1521 1523 1524 1525 1526 1526 1526 1527 1526 1526 1525 1525 1524 1523 1522 1521 1519 1518 1515 1512 1510 1510 1509 1508 1506 1505 1503 1501 1499 1497 1494 1491 1488
1490 1494 1497 1501 1504 1507 1510 1513 1516 1518 1520 1521 1522 1523 1524 1525 1525 1525 1525 1524 1524 1523 1522 1521 1520 1518 1517 1516 1514 1510 1507 1506 1505 1504 1503 1501 1499 1497 1495 1493 1490 1487 1484
1486 1490 1494 1497 1501 1505 1508 1511 1514 1516 1518 1519 1520 1521 1522 1523 1523 1523 1523 1522 1522 1521 1520 1519 1518 1517 1515 1514 1513 1512 1509 1505 1501 1499 1498 1497 1495 1493 1491 1488 1486 1483 1480
1482 1487 1490 1494 1498 1502 1505 1508 1510 1512 1514 1516 1518 1519 1520 1521 1521 1521 1521 1520 1520 1519 1518 1517 1516 1515 1514 1512 1511 1511 1510 1507 1503 1497 1494 1493 1492 1489 1487 1484 1482 1479 1476
1479 1483 1487 1491 1495 1498 1502 1505 1508 1510 1512 1514 1516 1517 1518 1519 1519 1519 1518 1518 1517 1516 1516 1515 1514 1513 1511 1510 1509 1508 1506 1505 1502 1498 1491 1487 1486 1484 1482 1480 1477 1474 1471
1475 1479 1483 1487 1491 1495 1498 1501 1504 1507 1509 1511 1513 1514 1515 1516 1516 1516 1516 1515 1515 1514 1513 1512 1511 1510 1509 1508 1506 1505 1503 1502 1499 1496 1491 1485 1481 1478 1477 1475 1473 1470 1467